Location: Squirrel Cove
(50.1074°N, 124.9139°W)
Time: 02:58:00
(UTC-08:00)

ISS - Pass Details

Date: 04 December 2022
Orbit: 412 x 419 km, 51.6° (Epoch: 02 February)

Event Time Altitude Azimuth Distance (km) Brightness Sun altitude
Rises 17:01:33 0° 286° (WNW) 2,350 0.8 -6.7°
Reaches altitude 10° 17:03:39 10° 285° (WNW) 1,486 -0.2 -7.0°
Maximum altitude 17:06:58 72° 201° (SSW) 438 -3.5 -7.5°
Drops below altitude 10° 17:10:17 10° 116° (ESE) 1,484 -1.3 -8.0°
Enters shadow 17:12:04 - 115° (ESE) 2,219 -0.5 -8.2°
